[ hide orbit diagram ]
For accurate long-term ephemerides, please instead use our Horizons system.This orbit viewer was implemented using two-body methods, and hence should not be used for determining accurate long-term trajectories (over several years or decades) or planetary encounter circumstances.
Orbital Elements at Epoch 2459200.5 (2020-Dec-17.0) TDB
Reference: JPL 22 (heliocentric ecliptic J2000)
Element | Value | Uncertainty (1-sigma) | Units |
e | .05438735914914632 | 4.3733e-08 | |
a | 3.116804447396933 | 3.2417e-08 | au |
q | 2.9472896845187 | 1.2462e-07 | au |
i | 10.57672094565049 | 5.9404e-06 | deg |
node | 139.9591220509035 | 2.41e-05 | deg |
peri | 142.2890554984566 | 6.1868e-05 | deg |
M | 83.99281756235874 | 5.7122e-05 | deg |
tp | 2458731.576056634064 (2019-Sep-05.07605663) | 0.00031719 | TDB |
period | 2009.845895292244 5.50 | 3.1356e-05 8.585e-08 | d yr |
n | .1791182104275979 | 2.7945e-09 | deg/d |
Q | 3.286319210275167 | 3.418e-08 | au |
|
| | Orbit Determination Parameters
Additional Information
|
[ show covariance matrix ]
Physical Parameter Table
Parameter |
Symbol |
Value |
Units |
Sigma |
Reference |
Notes |
absolute magnitude |
H |
15.74 |
|
n/a |
E2021B25 |
|
|
315166 Pawelmaksym | Discovered 2007 Apr. 6 at Charleston. |
Pawel Maksym (1983-2013) was an astronomy popularizer in Poland. He was an expert in asteroid occultations, an active member of IOTA and co-founder of the Pope Silvester II Astronomical Observatory in Bukowiec. Name suggested by Barbara Dluzewska, from the Czacki High School in Poland. |
NOTE: some special characters may not display properly (any characters within {} are an attempt to place the proper accent above a character) |
Reference: MPC batch dated 2013-07-22 | Last Updated: 2014-08-13 |
|
[ show close-approach data ]
|